Location: Poprad
(49.0500°N, 20.3000°E)
Time: 19:06:36
(UTC+02:00)

ITUPSAT 1 - Pass Details

Date: 01 May 2024
Orbit: 694 x 707 km, 98.5° (Epoch: 20 May)

Event Time Altitude Azimuth Distance (km) Brightness Sun altitude
Rises 21:15:53 0° 33° (NNE) 3,083 ? -11.9°
Reaches altitude 10° 21:19:43 10° 65° (ENE) 2,158 ? -12.3°
Maximum altitude 21:21:28 12° 87° (E) 2,027 ? -12.5°
Enters shadow 21:22:06 12° 95° (E) 2,044 ? -12.6°
